This is the latest recevied weather packets stored in our database for station/object KK7RJD. If no packets are shown the sender has not sent any weather packets the latest 10 day(s).
| Time | Temp. | Humidity | Pressure | Rain* | Wind** | Luminosity | Snow |
|---|---|---|---|---|---|---|---|
| 1777840424 | 22.22° C | 26% | 1012 hPa | 0 mm | - | 165 W/m² | - |
| 1777840121 | 21.67° C | 25% | 1011.9 hPa | 0 mm | - | 863 W/m² | - |
| 1777839819 | 21.67° C | 25% | 1011.9 hPa | 0 mm | - | 882 W/m² | - |
| 1777839517 | 21.67° C | 26% | 1012.1 hPa | 0 mm | - | 885 W/m² | - |
| 1777839214 | 21.67° C | 27% | 1012.3 hPa | 0 mm | - | 919 W/m² | - |
| 1777838912 | 21.67° C | 26% | 1012.1 hPa | 0 mm | - | 916 W/m² | - |
| 1777838607 | 21.67° C | 28% | 1012.3 hPa | 0 mm | - | 896 W/m² | - |
| 1777838305 | 21.67° C | 27% | 1012.3 hPa | 0 mm | - | 890 W/m² | - |
| 1777838001 | 21.11° C | 29% | 1012.4 hPa | 0 mm | - | 898 W/m² | - |
| 1777837699 | 21.11° C | 28% | 1012.6 hPa | 0 mm | - | 908 W/m² | - |
| 1777837394 | 21.67° C | 27% | 1012.6 hPa | 0 mm | - | 949 W/m² | - |
| 1777837090 | 21.11° C | 29% | 1012.8 hPa | 0 mm | - | 955 W/m² | - |
| 1777836787 | 20.56° C | 30% | 1012.6 hPa | 0 mm | - | 947 W/m² | - |
| 1777836483 | 20.56° C | 28% | 1012.9 hPa | 0 mm | - | 962 W/m² | - |
| 1777836178 | 20.56° C | 30% | 1013 hPa | 0 mm | - | 894 W/m² | - |
| 1777835875 | 21.11° C | 29% | 1013.2 hPa | 0 mm | - | 1046 W/m² | - |
| 1777835572 | 21.11° C | 29% | 1013.2 hPa | 0 mm | - | 995 W/m² | - |
| 1777835268 | 21.67° C | 29% | 1013.2 hPa | 0 mm | - | 947 W/m² | - |
| 1777834965 | 20.56° C | 32% | 1012.9 hPa | 0 mm | - | 924 W/m² | - |
| 1777834663 | 21.11° C | 33% | 1013 hPa | 0 mm | - | 927 W/m² | - |
| 1777834358 | 20.56° C | 31% | 1013.2 hPa | 0 mm | - | 914 W/m² | - |
| 1777834053 | 20° C | 29% | 1013.5 hPa | 0 mm | - | 913 W/m² | - |
| 1777833750 | 20.56° C | 28% | 1013.6 hPa | 0 mm | - | 911 W/m² | - |
| 1777833446 | 20.56° C | 30% | 1013.5 hPa | 0 mm | - | 908 W/m² | - |
| 1777833143 | 20° C | 30% | 1013.7 hPa | 0 mm | - | 907 W/m² | - |
* Rain latest hour (hover to see other rain measurements)
** Current wind speed in m/s (hover to see current wind gust speed)